This is the latest recevied weather packets stored in our database for station/object AI9F. If no packets are shown the sender has not sent any weather packets the latest 10 day(s).
| Time | Temp. | Humidity | Pressure | Rain* | Wind** | Luminosity | Snow |
|---|---|---|---|---|---|---|---|
| 1777836364 | 20° C | 41% | 1015.6 hPa | 0 mm | - | 766 W/m² | - |
| 1777836060 | 19.44° C | 41% | 1015.7 hPa | 0 mm | - | 771 W/m² | - |
| 1777835757 | 19.44° C | 42% | 1015.6 hPa | 0 mm | - | 783 W/m² | - |
| 1777835454 | 20° C | 39% | 1015.8 hPa | 0 mm | - | 794 W/m² | - |
| 1777835151 | 20° C | 43% | 1015.8 hPa | 0 mm | - | 714 W/m² | - |
| 1777834848 | 20° C | 39% | 1015.7 hPa | 0 mm | - | 804 W/m² | - |
| 1777834545 | 18.89° C | 45% | 1015.8 hPa | 0 mm | - | 806 W/m² | - |
| 1777834244 | 19.44° C | 38% | 1016 hPa | 0 mm | - | 817 W/m² | - |
| 1777833940 | 19.44° C | 39% | 1016.2 hPa | 0 mm | - | 829 W/m² | - |
| 1777833637 | 18.89° C | 46% | 1016 hPa | 0 mm | - | 832 W/m² | - |
| 1777833334 | 19.44° C | 44% | 1016 hPa | 0 mm | - | 827 W/m² | - |
| 1777833031 | 18.89° C | 43% | 1016.5 hPa | 0 mm | - | 828 W/m² | - |
| 1777832729 | 18.89° C | 42% | 1016.3 hPa | 0 mm | - | 793 W/m² | - |
| 1777832427 | 18.89° C | 41% | 1016.7 hPa | 0 mm | - | 830 W/m² | - |
| 1777832124 | 18.89° C | 42% | 1016.7 hPa | 0 mm | - | 840 W/m² | - |
| 1777831820 | 18.89° C | 39% | 1016.8 hPa | 0 mm | - | 825 W/m² | - |
| 1777831518 | 18.89° C | 46% | 1016.9 hPa | 0 mm | - | 836 W/m² | - |
| 1777831215 | 18.89° C | 40% | 1016.9 hPa | 0 mm | - | 816 W/m² | - |
| 1777830912 | 18.89° C | 45% | 1017.2 hPa | 0 mm | - | 836 W/m² | - |
| 1777830609 | 18.89° C | 45% | 1017.3 hPa | 0 mm | - | 846 W/m² | - |
| 1777830307 | 19.44° C | 46% | 1017.4 hPa | 0 mm | - | 844 W/m² | - |
| 1777830002 | 18.89° C | 42% | 1017.9 hPa | 0 mm | - | 837 W/m² | - |
| 1777829697 | 18.33° C | 46% | 1018.1 hPa | 0 mm | - | 832 W/m² | - |
| 1777829394 | 17.78° C | 48% | 1018 hPa | 0 mm | - | 836 W/m² | - |
| 1777829092 | 18.33° C | 47% | 1018.1 hPa | 0 mm | - | 829 W/m² | - |
* Rain latest hour (hover to see other rain measurements)
** Current wind speed in m/s (hover to see current wind gust speed)